Weather History for Edinburg, TX

Change the Weather History Date:

Friday, July 27, 2012

  Actual Average (KMFE) Record (KMFE)
Temperature  
Mean Temperature 90 °F 87 °F  
Max Temperature 99 °F 98 °F 104 °F (2009)
Min Temperature 81 °F 77 °F 69 °F (1976)
Degree Days  
Heating Degree Days 0 0  
Month to date heating degree days 0  
Since 1 June heating degree days 0  
Since 1 July heating degree days 0  
Cooling Degree Days 25 22  
Month to date cooling degree days 584  
Year to date cooling degree days 2467  
Since 1 June cooling degree days 1212  
Growing Degree Days 40 (Base 50)    
Moisture  
Dew Point 71 °F    
Average Humidity 57    
Maximum Humidity 83    
Minimum Humidity 22    
Precipitation  
Precipitation 0.00 in 0.05 in 1.58 in (1975)
Month to date precipitation 1.81  
Year to date precipitation 11.17  
Sea Level Pressure  
Sea Level Pressure 29.95 in    
Wind  
Wind Speed 14 mph (SE)    
Max Wind Speed 22 mph    
Max Gust Speed 29 mph    
Visibility 8 miles    
Events Rain , Thunderstorm    
T = Trace of Precipitation, MM = Missing Value Source: NWS Daily Summary

Daily Weather History Graph

Daily Weather History Graph

Search for Another Location

Airport:

Trip Planner

Search our weather history database for the weather conditions in past years. The results will help you decide how hot, cold, wet, or windy it might be!

Date:

Astronomy

Jul. 27, 2012 Rise Set
Actual Time 6:55 AM CDT 8:22 PM CDT
Civil Twilight 6:30 AM CDT 8:47 PM CDT
Nautical Twilight 6:00 AM CDT 9:17 PM CDT
Astronomical Twilight 5:29 AM CDT 9:48 PM CDT
Moon 3:19 PM CDT (7/27) 1:27 AM CDT (7/27)
Length of Visible Light 14h 17m
Length of Day
13h 26m
Waxing Gibbous, 65% of the Moon is Illuminated
Jul 27
Waxing Gibbous
Aug 1
Full
Aug 9
Last Quarter
Aug 17
New
Aug 24
First Quarter

Hourly Weather History & Observations

Time (CDT) Temp. Heat Index Dew Point Humidity Pressure Visibility Wind Dir Wind Speed Gust Speed Precip Events Conditions
12:15 AM 85.6 °F 94.6 °F 75.4 °F 71% 29.92 in 7.0 mi SSE 18.4 mph 24.2 mph N/A   Mostly Cloudy
12:35 AM 85.6 °F 95.0 °F 75.6 °F 72% 29.92 in 7.0 mi SE 15.0 mph 21.9 mph N/A   Mostly Cloudy
12:55 AM 85.6 °F 95.0 °F 75.7 °F 72% 29.92 in 7.0 mi SSE 15.0 mph - N/A   Mostly Cloudy
1:15 AM 85.5 °F 95.0 °F 75.7 °F 73% 29.93 in 7.0 mi SSE 12.7 mph - N/A   Overcast
1:35 AM 85.1 °F 94.1 °F 75.6 °F 73% 29.93 in 7.0 mi SSE 13.8 mph 18.4 mph N/A   Mostly Cloudy
1:55 AM 85.1 °F 94.1 °F 75.6 °F 73% 29.92 in 7.0 mi SSE 12.7 mph 19.6 mph N/A Thunderstorm Mostly Cloudy
2:15 AM 85.3 °F 94.6 °F 75.9 °F 73% 29.92 in 7.0 mi SSE 11.5 mph - N/A   Mostly Cloudy
2:35 AM 85.1 °F 94.5 °F 76.1 °F 74% 29.92 in 7.0 mi SSE 12.7 mph 17.3 mph N/A   Mostly Cloudy
2:55 AM 84.9 °F 94.5 °F 76.1 °F 75% 29.91 in 7.0 mi SSE 11.5 mph - N/A   Mostly Cloudy
3:15 AM 84.7 °F 94.0 °F 76.1 °F 75% 29.90 in 7.0 mi SSE 10.4 mph - N/A   Scattered Clouds
3:35 AM 84.4 °F 93.5 °F 76.1 °F 76% 29.90 in 7.0 mi SSE 13.8 mph - N/A   Scattered Clouds
3:55 AM 84.2 °F 93.4 °F 76.1 °F 77% 29.89 in 7.0 mi SSE 11.5 mph 18.4 mph N/A   Scattered Clouds
4:15 AM 83.7 °F 92.4 °F 76.1 °F 78% 29.88 in 7.0 mi SSE 12.7 mph 18.4 mph N/A   Scattered Clouds
4:35 AM 83.5 °F 91.9 °F 76.1 °F 78% 29.88 in 7.0 mi SSE 10.4 mph - N/A   Scattered Clouds
4:55 AM 83.3 °F 91.8 °F 76.1 °F 79% 29.90 in 7.0 mi SSE 8.1 mph - N/A   Scattered Clouds
5:15 AM 83.3 °F 91.8 °F 76.3 °F 79% 29.90 in 7.0 mi SSE 10.4 mph - N/A   Scattered Clouds
5:35 AM 83.3 °F 91.8 °F 76.3 °F 79% 29.91 in 7.0 mi SE 10.4 mph - N/A   Scattered Clouds
5:55 AM 82.9 °F 91.5 °F 76.5 °F 81% 29.92 in 7.0 mi SSE 9.2 mph - N/A   Scattered Clouds
6:15 AM 82.6 °F 90.5 °F 76.3 °F 81% 29.93 in 7.0 mi SE 6.9 mph - N/A   Scattered Clouds
6:35 AM 82.4 °F 90.3 °F 76.3 °F 82% 29.93 in 7.0 mi SE 6.9 mph - N/A   Scattered Clouds
6:55 AM 81.9 °F 89.2 °F 76.1 °F 83% 29.93 in 7.0 mi SE 9.2 mph - N/A   Scattered Clouds
7:15 AM 81.7 °F 88.7 °F 76.1 °F 83% 29.93 in 5.0 mi SE 8.1 mph - N/A   Haze
7:35 AM 82.4 °F 90.3 °F 76.3 °F 82% 29.94 in 5.0 mi SE 5.8 mph - N/A Rain Light Rain
7:55 AM 82.8 °F 91.0 °F 76.5 °F 81% 29.94 in 5.0 mi SE 8.1 mph - N/A   Haze
8:15 AM 83.7 °F 92.7 °F 76.5 °F 79% 29.95 in 5.0 mi SE 9.2 mph - N/A   Haze
8:35 AM 84.2 °F 93.4 °F 76.3 °F 77% 29.96 in 5.0 mi SE 8.1 mph - N/A   Haze
8:55 AM 84.9 °F 94.5 °F 76.1 °F 75% 29.97 in 5.0 mi SSE 11.5 mph 16.1 mph N/A   Haze
9:15 AM 86.0 °F 95.5 °F 75.6 °F 71% 29.98 in 5.0 mi SE 12.7 mph - N/A   Haze
9:35 AM 87.8 °F 96.1 °F 73.9 °F 63% 29.97 in 7.0 mi SE 18.4 mph - N/A   Scattered Clouds
9:55 AM 89.6 °F 98.2 °F 73.4 °F 59% 29.98 in 7.0 mi SSE 15.0 mph - N/A   Mostly Cloudy
10:15 AM 90.3 °F 97.7 °F 72.1 °F 55% 29.98 in 7.0 mi SSE 13.8 mph 19.6 mph N/A   Scattered Clouds
10:35 AM 90.9 °F 97.3 °F 70.9 °F 52% 29.98 in 7.0 mi SSE 16.1 mph 21.9 mph N/A   Scattered Clouds
10:55 AM 92.5 °F 97.4 °F 69.1 °F 46% 29.98 in 7.0 mi SE 21.9 mph - N/A   Scattered Clouds
11:35 AM 94.1 °F 98.4 °F 68.0 °F 42% 29.98 in 7.0 mi SE 18.4 mph 25.3 mph N/A   Scattered Clouds
11:55 AM 95.4 °F 98.6 °F 65.8 °F 38% 29.98 in 7.0 mi SE 13.8 mph - N/A   Scattered Clouds
12:15 PM 97.0 °F 97.8 °F 62.1 °F 31% 29.99 in 7.0 mi SSE 17.3 mph 24.2 mph N/A   Clear
12:35 PM 96.4 °F 98.9 °F 64.6 °F 35% 29.98 in 10.0 mi SSE 17.3 mph 24.2 mph N/A   Clear
12:55 PM 97.0 °F 99.3 °F 64.6 °F 34% 29.97 in 10.0 mi SE 19.6 mph 26.5 mph N/A   Clear
1:15 PM 98.2 °F 100.4 °F 64.0 °F 32% 29.97 in 7.0 mi SSE 21.9 mph 26.5 mph N/A   Clear
1:35 PM 98.4 °F 100.2 °F 62.6 °F 31% 29.97 in 10.0 mi SE 16.1 mph 25.3 mph N/A   Clear
1:55 PM 98.8 °F 99.7 °F 61.7 °F 29% 29.97 in 7.0 mi SE 18.4 mph 26.5 mph N/A   Clear
2:15 PM 98.4 °F 100.7 °F 64.2 °F 32% 29.96 in 7.0 mi SE 19.6 mph 28.8 mph N/A   Scattered Clouds
2:35 PM 99.3 °F 101.7 °F 63.7 °F 31% 29.96 in 10.0 mi SE 17.3 mph 24.2 mph N/A   Scattered Clouds
2:55 PM 99.9 °F 102.1 °F 63.5 °F 30% 29.95 in 10.0 mi SE 15.0 mph 28.8 mph N/A   Clear
3:35 PM 99.0 °F 100.5 °F 62.6 °F 30% 29.94 in 7.0 mi SE 18.4 mph 26.5 mph N/A   Clear
3:55 PM 99.5 °F 100.9 °F 62.2 °F 29% 29.94 in 7.0 mi ESE 17.3 mph 23.0 mph N/A   Clear
4:15 PM 99.0 °F 100.5 °F 62.2 °F 30% 29.93 in 10.0 mi SE 16.1 mph 26.5 mph N/A   Clear
4:35 PM 99.3 °F 99.6 °F 60.3 °F 27% 29.93 in 10.0 mi ESE 20.7 mph 24.2 mph N/A   Clear
4:55 PM 99.3 °F 97.4 °F 54.5 °F 22% 29.93 in 10.0 mi SE 17.3 mph 24.2 mph N/A   Clear
5:15 PM 98.8 °F 99.2 °F 60.4 °F 28% 29.92 in 10.0 mi SE 17.3 mph 23.0 mph N/A   Clear
5:35 PM 98.1 °F 99.6 °F 62.6 °F 31% 29.92 in 10.0 mi SE 16.1 mph - N/A   Clear
5:55 PM 97.7 °F 100.0 °F 64.0 °F 33% 29.93 in 10.0 mi ESE 21.9 mph 26.5 mph N/A   Scattered Clouds
6:15 PM 96.8 °F 99.0 °F 64.4 °F 34% 29.93 in 10.0 mi ESE 18.4 mph 27.6 mph N/A   Scattered Clouds
6:35 PM 95.7 °F 99.2 °F 66.2 °F 38% 29.93 in 10.0 mi ESE 18.4 mph 25.3 mph N/A   Scattered Clouds
6:55 PM 94.5 °F 97.5 °F 66.2 °F 39% 29.93 in 10.0 mi SE 17.3 mph 23.0 mph N/A   Clear
7:15 PM 93.2 °F 97.2 °F 67.6 °F 43% 29.94 in 10.0 mi SE 16.1 mph - N/A   Clear
7:35 PM 92.7 °F 93.6 °F 63.0 °F 37% 29.94 in 10.0 mi SE 16.1 mph 21.9 mph N/A   Clear
7:55 PM 91.8 °F 94.6 °F 66.2 °F 43% 29.95 in 10.0 mi SE 15.0 mph - N/A   Clear
8:35 PM 89.6 °F 93.9 °F 68.5 °F 50% 29.97 in 10.0 mi SE 16.1 mph - N/A   Clear
9:15 PM 87.6 °F 93.1 °F 70.7 °F 57% 29.99 in 10.0 mi SE 12.7 mph - N/A   Clear
9:35 PM 87.1 °F 93.2 °F 71.6 °F 60% 29.99 in 10.0 mi SE 15.0 mph - N/A   Clear
9:55 PM 86.4 °F 92.6 °F 72.0 °F 62% 30.00 in 10.0 mi ESE 12.7 mph 16.1 mph N/A   Clear
10:15 PM 86.0 °F 92.6 °F 72.5 °F 64% 30.02 in 10.0 mi SE 11.5 mph - N/A   Clear
10:35 PM 85.6 °F 92.6 °F 73.2 °F 66% 30.02 in 10.0 mi ESE 10.4 mph - N/A   Clear
10:55 PM 85.1 °F 92.6 °F 73.8 °F 69% 30.03 in 10.0 mi ESE 10.4 mph - N/A   Clear
11:35 PM 84.2 °F 91.9 °F 74.7 °F 73% 30.04 in 10.0 mi SE 10.4 mph - N/A   Clear
11:55 PM 84.2 °F 92.3 °F 75.0 °F 74% 30.05 in 10.0 mi SE 10.4 mph - N/A   Clear